Time,TemperatureF,DewpointF,PressureIn,WindDirection,WindDirectionDegrees,WindSpeedMPH,WindSpeedGustMPH,Humidity,HourlyPrecipIn,Conditions,Clouds,dailyrainin,SoftwareType,DateUTC
2013-09-04 00:04:00,83.0,0.0,29.95,WNW,299,9.0,14.0,34,-99.99,,,-99.99,,2013-09-04 07:04:00,
2013-09-04 00:12:00,83.0,0.0,29.95,West,277,10.0,14.0,37,-99.99,,,-99.99,,2013-09-04 07:12:00,
2013-09-04 00:20:00,82.0,0.0,29.95,WNW,287,7.0,14.0,36,-99.99,,,-99.99,,2013-09-04 07:20:00,
2013-09-04 00:28:00,82.0,0.0,29.95,West,267,9.0,13.0,35,-99.99,,,-99.99,,2013-09-04 07:28:00,
2013-09-04 00:36:00,81.0,0.0,29.95,WNW,294,6.0,12.0,37,-99.99,,,-99.99,,2013-09-04 07:36:00,
2013-09-04 00:44:00,80.0,0.0,29.95,WNW,292,6.0,9.0,39,-99.99,,,-99.99,,2013-09-04 07:44:00,
2013-09-04 00:52:00,81.0,0.0,29.95,WNW,295,9.0,12.0,35,-99.99,,,-99.99,,2013-09-04 07:52:00,
2013-09-04 01:00:00,81.0,0.0,29.95,West,275,9.0,13.0,37,-99.99,,,-99.99,,2013-09-04 08:00:00,
2013-09-04 01:08:00,81.0,0.0,29.95,WNW,283,8.0,13.0,37,-99.99,,,-99.99,,2013-09-04 08:08:00,
2013-09-04 01:16:00,81.0,0.0,29.95,WNW,286,8.0,12.0,36,-99.99,,,-99.99,,2013-09-04 08:16:00,
2013-09-04 01:24:00,80.0,0.0,29.95,West,274,3.0,12.0,39,-99.99,,,-99.99,,2013-09-04 08:24:00,
2013-09-04 01:32:00,78.0,0.0,29.95,WNW,303,2.0,9.0,44,-99.99,,,-99.99,,2013-09-04 08:32:00,
2013-09-04 01:40:00,78.0,0.0,29.95,East,98,2.0,5.0,47,-99.99,,,-99.99,,2013-09-04 08:40:00,
2013-09-04 01:48:00,79.0,0.0,29.95,WSW,243,0.0,5.0,38,-99.99,,,-99.99,,2013-09-04 08:48:00,
2013-09-04 01:56:00,80.0,0.0,29.96,NW,307,8.0,8.0,38,-99.99,,,-99.99,,2013-09-04 08:56:00,
2013-09-04 02:04:00,81.0,0.0,29.95,WNW,295,6.0,8.0,34,-99.99,,,-99.99,,2013-09-04 09:04:00,
2013-09-04 02:12:00,80.0,0.0,29.95,NW,308,2.0,7.0,38,-99.99,,,-99.99,,2013-09-04 09:12:00,
2013-09-04 02:20:00,80.0,0.0,29.95,WNW,296,2.0,6.0,37,-99.99,,,-99.99,,2013-09-04 09:20:00,
2013-09-04 02:28:00,79.0,0.0,29.95,NW,309,5.0,6.0,37,-99.99,,,-99.99,,2013-09-04 09:28:00,
2013-09-04 02:36:00,79.0,0.0,29.95,WNW,291,7.0,9.0,38,-99.99,,,-99.99,,2013-09-04 09:36:00,
2013-09-04 02:44:00,79.0,0.0,29.95,West,269,13.0,13.0,36,-99.99,,,-99.99,,2013-09-04 09:44:00,
2013-09-04 02:52:00,79.0,0.0,29.95,WNW,299,6.0,14.0,35,-99.99,,,-99.99,,2013-09-04 09:52:00,
2013-09-04 03:00:00,79.0,0.0,29.95,NW,306,8.0,13.0,38,-99.99,,,-99.99,,2013-09-04 10:00:00,
2013-09-04 03:08:00,79.0,0.0,29.95,WNW,291,8.0,14.0,36,-99.99,,,-99.99,,2013-09-04 10:08:00,
2013-09-04 03:16:00,79.0,0.0,29.95,WNW,289,7.0,14.0,37,-99.99,,,-99.99,,2013-09-04 10:16:00,
2013-09-04 03:24:00,79.0,0.0,29.95,NW,306,7.0,13.0,36,-99.99,,,-99.99,,2013-09-04 10:24:00,
2013-09-04 03:32:00,79.0,0.0,29.95,WNW,298,12.0,14.0,40,-99.99,,,-99.99,,2013-09-04 10:32:00,
2013-09-04 03:40:00,79.0,0.0,29.95,WNW,302,10.0,15.0,35,-99.99,,,-99.99,,2013-09-04 10:40:00,
2013-09-04 03:48:00,79.0,0.0,29.95,WNW,302,9.0,14.0,37,-99.99,,,-99.99,,2013-09-04 10:48:00,
2013-09-04 03:56:00,79.0,0.0,29.95,WNW,288,8.0,15.0,36,-99.99,,,-99.99,,2013-09-04 10:56:00,
2013-09-04 04:04:00,79.0,0.0,29.95,WNW,302,7.0,15.0,36,-99.99,,,-99.99,,2013-09-04 11:04:00,
2013-09-04 04:12:00,78.0,0.0,29.95,WNW,293,12.0,15.0,40,-99.99,,,-99.99,,2013-09-04 11:12:00,
2013-09-04 04:20:00,78.0,0.0,29.95,WNW,298,12.0,15.0,37,-99.99,,,-99.99,,2013-09-04 11:20:00,
2013-09-04 04:28:00,78.0,0.0,29.95,WNW,295,8.0,14.0,39,-99.99,,,-99.99,,2013-09-04 11:28:00,
2013-09-04 04:36:00,77.0,0.0,29.96,WNW,296,12.0,14.0,38,-99.99,,,-99.99,,2013-09-04 11:36:00,
2013-09-04 04:44:00,77.0,0.0,29.96,WNW,292,7.0,14.0,40,-99.99,,,-99.99,,2013-09-04 11:44:00,
2013-09-04 04:52:00,76.0,0.0,29.96,WNW,301,5.0,10.0,40,-99.99,,,-99.99,,2013-09-04 11:52:00,
2013-09-04 05:00:00,76.0,0.0,29.96,WNW,299,8.0,9.0,41,-99.99,,,-99.99,,2013-09-04 12:00:00,
2013-09-04 05:08:00,76.0,0.0,29.96,NW,314,6.0,10.0,42,-99.99,,,-99.99,,2013-09-04 12:08:00,
2013-09-04 05:16:00,76.0,0.0,29.96,NW,316,6.0,7.0,42,-99.99,,,-99.99,,2013-09-04 12:16:00,
2013-09-04 05:24:00,75.0,0.0,29.97,West,261,0.0,7.0,44,-99.99,,,-99.99,,2013-09-04 12:24:00,
2013-09-04 05:32:00,75.0,0.0,29.97,West,261,0.0,5.0,43,-99.99,,,-99.99,,2013-09-04 12:32:00,
2013-09-04 05:40:00,74.0,0.0,29.97,WSW,257,0.0,2.0,45,-99.99,,,-99.99,,2013-09-04 12:40:00,
2013-09-04 05:48:00,75.0,0.0,29.97,NW,307,3.0,5.0,42,-99.99,,,-99.99,,2013-09-04 12:48:00,
2013-09-04 05:56:00,75.0,0.0,29.97,NW,307,3.0,5.0,42,-99.99,,,-99.99,,2013-09-04 12:56:00,
2013-09-04 06:04:00,75.0,0.0,29.97,NW,307,3.0,5.0,42,-99.99,,,-99.99,,2013-09-04 13:04:00,
2013-09-04 06:12:00,75.0,0.0,29.97,NW,307,3.0,5.0,42,-99.99,,,-99.99,,2013-09-04 13:12:00,
2013-09-04 06:20:00,75.0,0.0,29.97,NW,307,3.0,5.0,42,-99.99,,,-99.99,,2013-09-04 13:20:00,
2013-09-04 06:28:00,75.0,0.0,29.97,NW,307,3.0,5.0,42,-99.99,,,-99.99,,2013-09-04 13:28:00,
2013-09-04 06:36:00,75.0,0.0,29.97,NW,307,3.0,5.0,42,-99.99,,,-99.99,,2013-09-04 13:36:00,
2013-09-04 06:44:00,75.0,0.0,29.97,NW,307,3.0,5.0,42,-99.99,,,-99.99,,2013-09-04 13:44:00,
2013-09-04 06:52:00,75.0,0.0,29.97,NW,307,3.0,5.0,42,-99.99,,,-99.99,,2013-09-04 13:52:00,
2013-09-04 07:00:00,75.0,0.0,29.97,NW,307,3.0,5.0,42,-99.99,,,-99.99,,2013-09-04 14:00:00,
2013-09-04 07:08:00,75.0,0.0,29.97,NW,307,3.0,5.0,42,-99.99,,,-99.99,,2013-09-04 14:08:00,
2013-09-04 07:16:00,75.0,0.0,29.97,NW,307,3.0,5.0,42,-99.99,,,-99.99,,2013-09-04 14:16:00,
2013-09-04 07:24:00,75.0,0.0,29.97,NW,307,3.0,5.0,42,-99.99,,,-99.99,,2013-09-04 14:24:00,
2013-09-04 07:32:00,75.0,0.0,29.97,NW,307,3.0,5.0,42,-99.99,,,-99.99,,2013-09-04 14:32:00,
2013-09-04 07:40:00,75.0,0.0,29.97,NW,307,3.0,5.0,42,-99.99,,,-99.99,,2013-09-04 14:40:00,
2013-09-04 07:48:00,75.0,0.0,29.97,NW,307,3.0,5.0,42,-99.99,,,-99.99,,2013-09-04 14:48:00,
2013-09-04 07:56:00,75.0,0.0,29.97,NW,307,3.0,5.0,42,-99.99,,,-99.99,,2013-09-04 14:56:00,
2013-09-04 08:04:00,75.0,0.0,29.97,NW,307,3.0,5.0,42,-99.99,,,-99.99,,2013-09-04 15:04:00,
2013-09-04 08:12:00,75.0,0.0,29.97,NW,307,3.0,5.0,42,-99.99,,,-99.99,,2013-09-04 15:12:00,
2013-09-04 08:20:00,75.0,0.0,29.97,NW,307,3.0,5.0,42,-99.99,,,-99.99,,2013-09-04 15:20:00,
2013-09-04 08:28:00,75.0,0.0,29.97,NW,307,3.0,5.0,42,-99.99,,,-99.99,,2013-09-04 15:28:00,
2013-09-04 08:36:00,75.0,0.0,29.97,NW,307,3.0,5.0,42,-99.99,,,-99.99,,2013-09-04 15:36:00,
2013-09-04 08:44:00,75.0,0.0,29.97,NW,307,3.0,5.0,42,-99.99,,,-99.99,,2013-09-04 15:44:00,
2013-09-04 08:52:00,75.0,0.0,29.97,NW,307,3.0,5.0,42,-99.99,,,-99.99,,2013-09-04 15:52:00,
2013-09-04 09:00:00,75.0,0.0,29.97,NW,307,3.0,5.0,42,-99.99,,,-99.99,,2013-09-04 16:00:00,
2013-09-04 09:08:00,75.0,0.0,29.97,NW,307,3.0,5.0,42,-99.99,,,-99.99,,2013-09-04 16:08:00,
2013-09-04 09:16:00,75.0,0.0,29.97,NW,307,3.0,5.0,42,-99.99,,,-99.99,,2013-09-04 16:16:00,
2013-09-04 09:24:00,75.0,0.0,29.97,NW,307,3.0,5.0,42,-99.99,,,-99.99,,2013-09-04 16:24:00,
2013-09-04 09:32:00,75.0,0.0,29.97,NW,307,3.0,5.0,42,-99.99,,,-99.99,,2013-09-04 16:32:00,
2013-09-04 09:40:00,75.0,0.0,29.97,NW,307,3.0,5.0,42,-99.99,,,-99.99,,2013-09-04 16:40:00,
2013-09-04 09:48:00,75.0,0.0,29.97,NW,307,3.0,5.0,42,-99.99,,,-99.99,,2013-09-04 16:48:00,
2013-09-04 09:56:00,75.0,0.0,29.97,NW,307,3.0,5.0,42,-99.99,,,-99.99,,2013-09-04 16:56:00,
2013-09-04 10:04:00,75.0,0.0,29.97,NW,307,3.0,5.0,42,-99.99,,,-99.99,,2013-09-04 17:04:00,
2013-09-04 10:12:00,75.0,0.0,29.97,NW,307,3.0,5.0,42,-99.99,,,-99.99,,2013-09-04 17:12:00,
2013-09-04 10:20:00,75.0,0.0,29.97,NW,307,3.0,5.0,42,-99.99,,,-99.99,,2013-09-04 17:20:00,
2013-09-04 10:28:00,75.0,0.0,29.97,NW,307,3.0,5.0,42,-99.99,,,-99.99,,2013-09-04 17:28:00,
2013-09-04 10:36:00,75.0,0.0,29.97,NW,307,3.0,5.0,42,-99.99,,,-99.99,,2013-09-04 17:36:00,
2013-09-04 10:44:00,75.0,0.0,29.97,NW,307,3.0,5.0,42,-99.99,,,-99.99,,2013-09-04 17:44:00,
2013-09-04 10:52:00,75.0,0.0,29.97,NW,307,3.0,5.0,42,-99.99,,,-99.99,,2013-09-04 17:52:00,
2013-09-04 11:00:00,75.0,0.0,29.97,NW,307,3.0,5.0,42,-99.99,,,-99.99,,2013-09-04 18:00:00,
2013-09-04 11:08:00,75.0,0.0,29.97,NW,307,3.0,5.0,42,-99.99,,,-99.99,,2013-09-04 18:08:00,
2013-09-04 11:16:00,75.0,0.0,29.97,NW,307,3.0,5.0,42,-99.99,,,-99.99,,2013-09-04 18:16:00,
2013-09-04 11:24:00,75.0,0.0,29.97,NW,307,3.0,5.0,42,-99.99,,,-99.99,,2013-09-04 18:24:00,
2013-09-04 11:32:00,75.0,0.0,29.97,NW,307,3.0,5.0,42,-99.99,,,-99.99,,2013-09-04 18:32:00,
2013-09-04 11:40:00,75.0,0.0,29.97,NW,307,3.0,5.0,42,-99.99,,,-99.99,,2013-09-04 18:40:00,
2013-09-04 11:48:00,75.0,0.0,29.97,NW,307,3.0,5.0,42,-99.99,,,-99.99,,2013-09-04 18:48:00,
2013-09-04 11:56:00,75.0,0.0,29.97,NW,307,3.0,5.0,42,-99.99,,,-99.99,,2013-09-04 18:56:00,
2013-09-04 12:04:00,75.0,0.0,29.97,NW,307,3.0,5.0,42,-99.99,,,-99.99,,2013-09-04 19:04:00,
2013-09-04 12:12:00,75.0,0.0,29.97,NW,307,3.0,5.0,42,-99.99,,,-99.99,,2013-09-04 19:12:00,
2013-09-04 12:20:00,75.0,0.0,29.97,NW,307,3.0,5.0,42,-99.99,,,-99.99,,2013-09-04 19:20:00,
2013-09-04 12:28:00,75.0,0.0,29.97,NW,307,3.0,5.0,42,-99.99,,,-99.99,,2013-09-04 19:28:00,
2013-09-04 12:36:00,75.0,0.0,29.97,NW,307,3.0,5.0,42,-99.99,,,-99.99,,2013-09-04 19:36:00,
2013-09-04 12:44:00,75.0,0.0,29.97,NW,307,3.0,5.0,42,-99.99,,,-99.99,,2013-09-04 19:44:00,
2013-09-04 12:52:00,99.0,0.0,29.97,WNW,302,5.0,9.0,18,-99.99,,,-99.99,,2013-09-04 19:52:00,
2013-09-04 13:00:00,98.0,0.0,29.96,WNW,300,5.0,13.0,20,-99.99,,,-99.99,,2013-09-04 20:00:00,
2013-09-04 13:08:00,100.0,0.0,29.96,West,275,5.0,15.0,19,-99.99,,,-99.99,,2013-09-04 20:08:00,
2013-09-04 13:16:00,99.0,0.0,29.96,WNW,292,2.0,15.0,17,-99.99,,,-99.99,,2013-09-04 20:16:00,
2013-09-04 13:24:00,100.0,0.0,29.96,WNW,294,6.0,14.0,19,-99.99,,,-99.99,,2013-09-04 20:24:00,
2013-09-04 13:32:00,100.0,0.0,29.96,WNW,299,6.0,15.0,18,-99.99,,,-99.99,,2013-09-04 20:32:00,
2013-09-04 13:40:00,100.0,0.0,29.95,WNW,297,12.0,15.0,15,-99.99,,,-99.99,,2013-09-04 20:40:00,
2013-09-04 13:48:00,100.0,0.0,29.95,NW,309,8.0,14.0,18,-99.99,,,-99.99,,2013-09-04 20:48:00,
2013-09-04 13:56:00,101.0,0.0,29.95,WNW,302,2.0,14.0,14,-99.99,,,-99.99,,2013-09-04 20:56:00,
2013-09-04 14:04:00,101.0,0.0,29.94,WNW,295,9.0,14.0,18,-99.99,,,-99.99,,2013-09-04 21:04:00,
2013-09-04 14:12:00,102.0,0.0,29.94,NW,308,13.0,13.0,17,-99.99,,,-99.99,,2013-09-04 21:12:00,
2013-09-04 14:20:00,102.0,0.0,29.93,NW,315,2.0,16.0,17,-99.99,,,-99.99,,2013-09-04 21:20:00,
2013-09-04 14:28:00,104.0,0.0,29.93,NW,315,5.0,14.0,14,-99.99,,,-99.99,,2013-09-04 21:28:00,
2013-09-04 14:36:00,103.0,0.0,29.92,WNW,303,5.0,14.0,18,-99.99,,,-99.99,,2013-09-04 21:36:00,
2013-09-04 14:44:00,103.0,0.0,29.92,WNW,299,14.0,16.0,14,-99.99,,,-99.99,,2013-09-04 21:44:00,
2013-09-04 19:52:00,92.0,0.0,29.91,WNW,295,15.0,17.0,24,-99.99,,,-99.99,,2013-09-05 02:52:00,
2013-09-04 20:00:00,91.0,0.0,29.91,WNW,297,10.0,16.0,25,-99.99,,,-99.99,,2013-09-05 03:00:00,
2013-09-04 20:08:00,91.0,0.0,29.91,WNW,294,12.0,14.0,22,-99.99,,,-99.99,,2013-09-05 03:08:00,
2013-09-04 20:16:00,91.0,0.0,29.92,WNW,298,12.0,14.0,25,-99.99,,,-99.99,,2013-09-05 03:16:00,
2013-09-04 20:24:00,90.0,0.0,29.92,WNW,298,9.0,16.0,24,-99.99,,,-99.99,,2013-09-05 03:24:00,
2013-09-04 20:32:00,90.0,0.0,29.93,WNW,292,7.0,16.0,27,-99.99,,,-99.99,,2013-09-05 03:32:00,
2013-09-04 20:40:00,90.0,0.0,29.93,WNW,296,10.0,14.0,25,-99.99,,,-99.99,,2013-09-05 03:40:00,
2013-09-04 20:48:00,90.0,0.0,29.93,WNW,301,12.0,14.0,24,-99.99,,,-99.99,,2013-09-05 03:48:00,
2013-09-04 20:56:00,90.0,0.0,29.93,WNW,298,8.0,14.0,24,-99.99,,,-99.99,,2013-09-05 03:56:00,
2013-09-04 21:04:00,89.0,0.0,29.93,WNW,295,8.0,13.0,24,-99.99,,,-99.99,,2013-09-05 04:04:00,
2013-09-04 21:08:00,88.0,0.0,29.94,WNW,300,5.0,10.0,26,-99.99,,,-99.99,,2013-09-05 04:08:00,
2013-09-04 21:12:00,88.0,0.0,29.94,WNW,300,5.0,10.0,26,-99.99,,,-99.99,,2013-09-05 04:12:00,
2013-09-04 21:20:00,88.0,0.0,29.94,NW,304,5.0,6.0,27,-99.99,,,-99.99,,2013-09-05 04:20:00,
2013-09-04 21:28:00,88.0,0.0,29.94,WNW,296,8.0,9.0,25,-99.99,,,-99.99,,2013-09-05 04:28:00,
2013-09-04 21:32:00,88.0,0.0,29.94,WNW,297,5.0,9.0,25,-99.99,,,-99.99,,2013-09-05 04:32:00,
2013-09-04 21:40:00,87.0,0.0,29.94,WNW,298,10.0,12.0,27,-99.99,,,-99.99,,2013-09-05 04:40:00,
2013-09-04 21:44:00,87.0,0.0,29.94,WNW,296,7.0,12.0,28,-99.99,,,-99.99,,2013-09-05 04:44:00,
2013-09-04 21:52:00,87.0,0.0,29.94,West,272,8.0,12.0,31,-99.99,,,-99.99,,2013-09-05 04:52:00,